FIN5DM EFHK-LHBP

Flight info

Callsign FIN5DM
Flight time 1h 57m
Altitude 36000
Route KOIVU Y123 LARTI DCT NAVOT DCT LUTAL P870 BERIL DCT SUWGI DCT LOGDA DCT POBOK M985 NAXAR DCT SUPAK DCT EDEMU
Aircraft A320/M-SDE3FGHIRWY/LB1

Departure

Time 2026-04-23 09:48
Airport Helsinki Vantaa Airport (EFHK)

Arrival

Time 2026-04-23 11:46
Airport Budapest Liszt Ferenc International Airport (LHBP)
Time Latitude Longitude Altitude Speed Heading
2026-04-23 09:24 60.31672 24.97206 167 ft 0 kts 242°
2026-04-23 09:38 60.31678 24.97230 166 ft 2 kts 242°
2026-04-23 09:38 60.31686 24.97261 166 ft 3 kts 258°
2026-04-23 09:38 60.31686 24.97297 166 ft 3 kts 295°
2026-04-23 09:39 60.31677 24.97324 166 ft 0 kts 328°
2026-04-23 09:42 60.31681 24.97321 166 ft 2 kts 335°
2026-04-23 09:42 60.31722 24.97286 166 ft 12 kts 336°
2026-04-23 09:42 60.31814 24.97203 166 ft 15 kts 336°
2026-04-23 09:43 60.31911 24.97108 166 ft 16 kts 333°
2026-04-23 09:43 60.32004 24.97011 166 ft 15 kts 332°
2026-04-23 09:43 60.32101 24.96905 166 ft 16 kts 330°
2026-04-23 09:43 60.32200 24.96789 166 ft 14 kts 330°
2026-04-23 09:44 60.32255 24.96687 167 ft 10 kts 265°
2026-04-23 09:44 60.32185 24.96521 168 ft 20 kts 227°
2026-04-23 09:44 60.32098 24.96329 168 ft 18 kts 228°
2026-04-23 09:44 60.32015 24.96145 168 ft 20 kts 227°
2026-04-23 09:45 60.31920 24.95937 170 ft 19 kts 227°
2026-04-23 09:45 60.31826 24.95731 169 ft 23 kts 228°
2026-04-23 09:45 60.31717 24.95491 171 ft 23 kts 226°
2026-04-23 09:45 60.31606 24.95249 170 ft 24 kts 228°
2026-04-23 09:46 60.31493 24.94999 168 ft 25 kts 227°
2026-04-23 09:46 60.31372 24.94733 163 ft 26 kts 228°
2026-04-23 09:46 60.31248 24.94457 159 ft 26 kts 227°
2026-04-23 09:46 60.31130 24.94198 157 ft 20 kts 227°
2026-04-23 09:47 60.31047 24.94012 158 ft 14 kts 233°
2026-04-23 09:47 60.31042 24.93841 159 ft 13 kts 294°
2026-04-23 09:47 60.31116 24.93720 158 ft 14 kts 336°
2026-04-23 09:47 60.31180 24.93752 159 ft 11 kts 45°
2026-04-23 09:48 60.31295 24.94002 160 ft 51 kts 47°
2026-04-23 09:48 60.31697 24.94878 171 ft 116 kts 46°
2026-04-23 09:48 60.32359 24.96346 242 ft 161 kts 43°
2026-04-23 09:48 60.33094 24.98064 928 ft 163 kts 43°
2026-04-23 09:49 60.33840 24.99817 1732 ft 169 kts 43°
2026-04-23 09:49 60.34629 25.01724 2373 ft 184 kts 45°
2026-04-23 09:49 60.35467 25.03793 3035 ft 194 kts 45°
2026-04-23 09:49 60.36336 25.05954 3698 ft 204 kts 44°
2026-04-23 09:50 60.37346 25.08170 4179 ft 225 kts 41°
2026-04-23 09:50 60.38458 25.10435 5011 ft 233 kts 42°
2026-04-23 09:50 60.39235 25.13379 5994 ft 250 kts 74°
2026-04-23 09:50 60.39026 25.16947 6988 ft 268 kts 105°
2026-04-23 09:51 60.38135 25.20348 7837 ft 280 kts 112°
2026-04-23 09:51 60.37131 25.23801 8616 ft 289 kts 113°
2026-04-23 09:51 60.36116 25.27362 9417 ft 296 kts 110°
2026-04-23 09:51 60.35148 25.31097 10203 ft 305 kts 114°
2026-04-23 09:52 60.33782 25.34508 10951 ft 323 kts 133°
2026-04-23 09:52 60.31814 25.36974 11470 ft 349 kts 157°
2026-04-23 09:52 60.29337 25.37825 11759 ft 375 kts 181°
2026-04-23 09:52 60.26699 25.37278 12304 ft 386 kts 194°
2026-04-23 09:53 60.24109 25.35762 13005 ft 390 kts 205°
2026-04-23 09:53 60.21706 25.33400 13708 ft 390 kts 217°
2026-04-23 09:53 60.19535 25.30164 14342 ft 388 kts 229°
2026-04-23 09:53 60.17537 25.26493 15011 ft 391 kts 230°
2026-04-23 09:54 60.15493 25.22732 15691 ft 395 kts 230°
2026-04-23 09:54 60.13482 25.19035 16356 ft 399 kts 230°
2026-04-23 09:54 60.11423 25.15254 17029 ft 403 kts 230°
2026-04-23 09:54 60.09345 25.11450 17687 ft 407 kts 230°
2026-04-23 09:55 60.07235 25.07599 18329 ft 411 kts 230°
2026-04-23 09:55 60.05112 25.03736 18891 ft 415 kts 230°
2026-04-23 09:55 60.02962 24.99833 19450 ft 419 kts 230°
2026-04-23 09:55 60.00793 24.95896 20017 ft 423 kts 230°
2026-04-23 09:56 59.98604 24.91923 20580 ft 427 kts 230°
2026-04-23 09:56 59.96393 24.87918 21136 ft 431 kts 230°
2026-04-23 09:56 59.94186 24.83925 21689 ft 435 kts 230°
2026-04-23 09:56 59.91934 24.79869 22235 ft 439 kts 230°
2026-04-23 09:57 59.89653 24.75774 22786 ft 443 kts 230°
2026-04-23 09:57 59.87322 24.71696 23312 ft 451 kts 225°
2026-04-23 09:57 59.84683 24.68163 23773 ft 464 kts 215°
2026-04-23 09:57 59.81714 24.65463 24199 ft 475 kts 204°
2026-04-23 09:58 59.78500 24.63686 24603 ft 483 kts 197°
2026-04-23 09:58 59.75258 24.62182 24993 ft 487 kts 197°
2026-04-23 09:58 59.71949 24.60636 25393 ft 491 kts 197°
2026-04-23 09:58 59.68615 24.59068 25779 ft 494 kts 197°
2026-04-23 09:59 59.65304 24.57495 26151 ft 498 kts 198°
2026-04-23 09:59 59.61891 24.55784 26523 ft 501 kts 199°
2026-04-23 09:59 59.58641 24.54080 26869 ft 504 kts 199°
2026-04-23 09:59 59.55244 24.52257 27226 ft 508 kts 200°
2026-04-23 10:00 59.51824 24.50419 27587 ft 511 kts 199°
2026-04-23 10:00 59.48375 24.48591 27919 ft 515 kts 199°
2026-04-23 10:00 59.44897 24.46782 28257 ft 519 kts 199°
2026-04-23 10:00 59.41375 24.44980 28598 ft 522 kts 199°
2026-04-23 10:01 59.37843 24.43186 28924 ft 526 kts 199°
2026-04-23 10:01 59.34286 24.41394 29241 ft 530 kts 198°
2026-04-23 10:01 59.30678 24.39766 29544 ft 534 kts 196°
2026-04-23 10:01 59.27015 24.38358 29871 ft 538 kts 194°
2026-04-23 10:02 59.23333 24.37120 30123 ft 542 kts 192°
2026-04-23 10:02 59.19596 24.35943 30376 ft 545 kts 192°
2026-04-23 10:02 59.15843 24.34754 30645 ft 547 kts 193°
2026-04-23 10:02 59.12082 24.33509 30918 ft 549 kts 193°
2026-04-23 10:03 59.08318 24.32199 31175 ft 550 kts 194°
2026-04-23 10:03 59.04648 24.30877 31416 ft 552 kts 194°
2026-04-23 10:03 59.00771 24.29466 31741 ft 552 kts 194°
2026-04-23 10:03 58.96999 24.28104 32097 ft 551 kts 193°
2026-04-23 10:04 58.93231 24.26760 32446 ft 550 kts 193°
2026-04-23 10:04 58.89367 24.25396 32809 ft 550 kts 193°
2026-04-23 10:04 58.85647 24.24093 33138 ft 549 kts 193°
2026-04-23 10:04 58.81839 24.22768 33502 ft 548 kts 193°
2026-04-23 10:05 58.78085 24.21464 33854 ft 548 kts 193°
2026-04-23 10:05 58.74410 24.20184 34172 ft 547 kts 193°
2026-04-23 10:05 58.70619 24.18860 34487 ft 546 kts 193°
2026-04-23 10:05 58.66883 24.17558 34840 ft 543 kts 193°
2026-04-23 10:06 58.63181 24.16276 35191 ft 540 kts 193°
2026-04-23 10:06 58.59537 24.15021 35546 ft 538 kts 192°
2026-04-23 10:06 58.55807 24.13739 35857 ft 536 kts 192°
2026-04-23 10:07 58.48577 24.11257 35948 ft 527 kts 192°
2026-04-23 10:07 58.41383 24.08800 35944 ft 525 kts 192°
2026-04-23 10:08 58.34190 24.06345 35949 ft 524 kts 192°
2026-04-23 10:08 58.27006 24.03884 35948 ft 525 kts 192°
2026-04-23 10:09 58.16229 24.00233 35951 ft 524 kts 192°
2026-04-23 10:09 58.09093 23.97846 35954 ft 524 kts 191°
2026-04-23 10:10 58.01904 23.95461 35957 ft 524 kts 191°
2026-04-23 10:10 57.94725 23.93068 35958 ft 524 kts 191°
2026-04-23 10:11 57.87550 23.90676 35959 ft 524 kts 191°
2026-04-23 10:11 57.80375 23.88298 35963 ft 523 kts 191°
2026-04-23 10:12 57.73250 23.85947 35964 ft 523 kts 191°
2026-04-23 10:12 57.66079 23.83586 35961 ft 523 kts 191°
2026-04-23 10:13 57.58910 23.81254 35966 ft 523 kts 191°
2026-04-23 10:13 57.51775 23.78945 35968 ft 522 kts 191°
2026-04-23 10:14 57.44613 23.76624 35969 ft 522 kts 191°
2026-04-23 10:14 57.37448 23.74309 35971 ft 522 kts 190°
2026-04-23 10:15 57.30296 23.72014 35976 ft 521 kts 190°
2026-04-23 10:15 57.23195 23.69753 35975 ft 521 kts 190°
2026-04-23 10:16 57.16006 23.67467 35983 ft 520 kts 190°
2026-04-23 10:16 57.08919 23.65201 35975 ft 520 kts 190°
2026-04-23 10:17 57.01759 23.62920 35982 ft 519 kts 189°
2026-04-23 10:17 56.94654 23.60693 35987 ft 519 kts 189°
2026-04-23 10:18 56.87536 23.58476 35983 ft 518 kts 189°
2026-04-23 10:18 56.80466 23.56262 35995 ft 518 kts 189°
2026-04-23 10:19 56.73359 23.54044 35991 ft 517 kts 189°
2026-04-23 10:19 56.66258 23.51841 35993 ft 516 kts 189°
2026-04-23 10:20 56.59226 23.49665 35991 ft 516 kts 189°
2026-04-23 10:20 56.52157 23.47485 35988 ft 515 kts 189°
2026-04-23 10:21 56.45096 23.45321 35993 ft 514 kts 189°
2026-04-23 10:21 56.38089 23.43178 35992 ft 514 kts 188°
2026-04-23 10:22 56.31034 23.41181 35987 ft 513 kts 186°
2026-04-23 10:22 56.23967 23.39533 35986 ft 512 kts 185°
2026-04-23 10:23 56.16907 23.37956 35986 ft 511 kts 186°
2026-04-23 10:23 56.09861 23.36296 35990 ft 510 kts 186°
2026-04-23 10:24 56.02830 23.34573 35969 ft 509 kts 186°
2026-04-23 10:24 55.95811 23.32880 35969 ft 509 kts 186°
2026-04-23 10:25 55.88792 23.31222 35966 ft 508 kts 186°
2026-04-23 10:25 55.81837 23.29584 35969 ft 507 kts 186°
2026-04-23 10:26 55.74833 23.27930 35973 ft 506 kts 186°
2026-04-23 10:26 55.67906 23.26294 35973 ft 505 kts 186°
2026-04-23 10:27 55.60892 23.24659 35971 ft 504 kts 186°
2026-04-23 10:27 55.53928 23.23030 35975 ft 503 kts 186°
2026-04-23 10:28 55.47037 23.21429 35964 ft 502 kts 186°
2026-04-23 10:28 55.40103 23.19818 35970 ft 502 kts 186°
2026-04-23 10:29 55.33195 23.18217 35971 ft 501 kts 186°
2026-04-23 10:29 55.26284 23.16627 35966 ft 500 kts 186°
2026-04-23 10:30 55.19400 23.15050 35972 ft 499 kts 185°
2026-04-23 10:30 55.12565 23.13504 35969 ft 498 kts 185°
2026-04-23 10:31 55.05690 23.11934 35972 ft 497 kts 185°
2026-04-23 10:31 54.98827 23.10367 35975 ft 496 kts 185°
2026-04-23 10:32 54.92013 23.08821 35969 ft 495 kts 185°
2026-04-23 10:32 54.85151 23.07272 35969 ft 495 kts 185°
2026-04-23 10:33 54.78368 23.05749 35957 ft 494 kts 185°
2026-04-23 10:33 54.71551 23.04240 35964 ft 493 kts 185°
2026-04-23 10:34 54.64753 23.02732 35962 ft 492 kts 185°
2026-04-23 10:34 54.57968 23.01215 35964 ft 491 kts 185°
2026-04-23 10:35 54.51195 22.99704 35961 ft 490 kts 185°
2026-04-23 10:35 54.44480 22.98216 35959 ft 489 kts 185°
2026-04-23 10:36 54.37735 22.96736 35958 ft 488 kts 185°
2026-04-23 10:36 54.31002 22.95267 35954 ft 487 kts 185°
2026-04-23 10:37 54.24329 22.93805 35951 ft 486 kts 185°
2026-04-23 10:37 54.17617 22.92330 35956 ft 485 kts 185°
2026-04-23 10:38 54.10927 22.90869 35948 ft 484 kts 185°
2026-04-23 10:38 54.04474 22.87860 35954 ft 486 kts 204°
2026-04-23 10:39 53.98414 22.82738 35948 ft 485 kts 206°
2026-04-23 10:39 53.92372 22.77630 35947 ft 485 kts 206°
2026-04-23 10:40 53.86331 22.72561 35945 ft 484 kts 206°
2026-04-23 10:40 53.80301 22.67496 35953 ft 483 kts 206°
2026-04-23 10:41 53.74276 22.62446 35950 ft 483 kts 205°
2026-04-23 10:41 53.68294 22.57451 35944 ft 483 kts 205°
2026-04-23 10:42 53.62265 22.52437 35948 ft 484 kts 205°
2026-04-23 10:42 53.59221 22.49916 36106 ft 486 kts 205°
2026-04-23 10:42 53.56223 22.47431 36338 ft 487 kts 205°
2026-04-23 10:43 53.53185 22.44915 36593 ft 487 kts 205°
2026-04-23 10:43 53.50155 22.42410 36856 ft 486 kts 205°
2026-04-23 10:43 53.47121 22.39906 37116 ft 486 kts 205°
2026-04-23 10:43 53.44092 22.37405 37384 ft 485 kts 205°
2026-04-23 10:44 53.41066 22.34912 37640 ft 484 kts 205°
2026-04-23 10:44 53.38042 22.32429 37870 ft 484 kts 205°
2026-04-23 10:44 53.31990 22.27479 37941 ft 483 kts 205°
2026-04-23 10:45 53.25949 22.22556 37944 ft 483 kts 205°
2026-04-23 10:45 53.19957 22.17675 37946 ft 482 kts 205°
2026-04-23 10:46 53.13932 22.12778 37948 ft 481 kts 205°
2026-04-23 10:46 53.08922 22.08730 37951 ft 481 kts 205°
2026-04-23 10:47 53.01916 22.03087 37959 ft 481 kts 205°
2026-04-23 10:47 52.95891 21.98236 37964 ft 481 kts 205°
2026-04-23 10:48 52.90883 21.94224 37967 ft 481 kts 205°
2026-04-23 10:48 52.84855 21.89405 37977 ft 481 kts 205°
2026-04-23 10:49 52.78826 21.84608 37973 ft 481 kts 205°
2026-04-23 10:49 52.72791 21.79825 37977 ft 480 kts 205°
2026-04-23 10:50 52.66810 21.75081 37978 ft 480 kts 205°
2026-04-23 10:50 52.60795 21.70316 37981 ft 480 kts 204°
2026-04-23 10:51 52.54778 21.65574 37977 ft 479 kts 204°
2026-04-23 10:51 52.48803 21.60892 37987 ft 479 kts 204°
2026-04-23 10:52 52.42792 21.56193 37980 ft 478 kts 204°
2026-04-23 10:52 52.36776 21.51510 37988 ft 478 kts 204°
2026-04-23 10:53 52.30763 21.46841 37988 ft 478 kts 204°
2026-04-23 10:53 52.24799 21.42217 37993 ft 477 kts 204°
2026-04-23 10:54 52.18798 21.37577 38000 ft 477 kts 204°
2026-04-23 10:54 52.12799 21.32955 38009 ft 477 kts 204°
2026-04-23 10:55 52.06801 21.28348 38004 ft 477 kts 204°
2026-04-23 10:55 52.00843 21.23783 38010 ft 476 kts 204°
2026-04-23 10:56 51.94837 21.19201 38002 ft 476 kts 204°
2026-04-23 10:56 51.88847 21.14638 38008 ft 476 kts 204°
2026-04-23 10:57 51.82843 21.10082 38006 ft 476 kts 204°
2026-04-23 10:57 51.76841 21.05556 38015 ft 476 kts 204°
2026-04-23 10:58 51.70876 21.01053 38015 ft 476 kts 204°
2026-04-23 10:58 51.64874 20.96528 38023 ft 476 kts 204°
2026-04-23 10:59 51.58878 20.92030 38022 ft 475 kts 204°
2026-04-23 10:59 51.52891 20.87543 38026 ft 475 kts 204°
2026-04-23 11:00 51.46942 20.83098 38022 ft 474 kts 204°
2026-04-23 11:00 51.40960 20.78654 38025 ft 474 kts 204°
2026-04-23 11:01 51.34978 20.74216 38025 ft 474 kts 204°
2026-04-23 11:01 51.29033 20.69819 38032 ft 474 kts 204°
2026-04-23 11:02 51.23012 20.65532 38030 ft 474 kts 202°
2026-04-23 11:02 51.16946 20.61435 38020 ft 473 kts 201°
2026-04-23 11:03 51.10874 20.57357 38022 ft 474 kts 202°
2026-04-23 11:03 51.04856 20.53258 38010 ft 474 kts 202°
2026-04-23 11:04 50.98802 20.49117 38014 ft 474 kts 202°
2026-04-23 11:04 50.92658 20.44946 38015 ft 474 kts 202°
2026-04-23 11:05 50.86584 20.40853 38022 ft 474 kts 202°
2026-04-23 11:05 50.80507 20.36766 38016 ft 474 kts 202°
2026-04-23 11:06 50.71434 20.30655 38020 ft 474 kts 202°
2026-04-23 11:07 50.65351 20.26580 38031 ft 474 kts 202°
2026-04-23 11:07 50.59312 20.22564 38028 ft 474 kts 201°
2026-04-23 11:08 50.53072 20.19266 38034 ft 473 kts 197°
2026-04-23 11:08 50.46802 20.16121 38026 ft 473 kts 197°
2026-04-23 11:09 50.40517 20.12968 38041 ft 473 kts 197°
2026-04-23 11:09 50.34392 20.09913 38043 ft 473 kts 197°
2026-04-23 11:10 50.28016 20.06754 38049 ft 474 kts 197°
2026-04-23 11:10 50.21733 20.03647 38061 ft 474 kts 197°
2026-04-23 11:11 50.15446 20.00540 38061 ft 473 kts 197°
2026-04-23 11:11 50.09198 19.97456 38069 ft 473 kts 197°
2026-04-23 11:12 50.02925 19.94372 38063 ft 473 kts 197°
2026-04-23 11:12 49.96648 19.91291 38055 ft 472 kts 197°
2026-04-23 11:13 49.90383 19.88217 38060 ft 472 kts 197°
2026-04-23 11:13 49.84108 19.85159 38053 ft 472 kts 197°
2026-04-23 11:14 49.77834 19.82160 38057 ft 471 kts 192°
2026-04-23 11:14 49.71407 19.81097 38042 ft 468 kts 179°
2026-04-23 11:15 49.64756 19.80940 38048 ft 468 kts 179°
2026-04-23 11:15 49.58270 19.80763 38047 ft 468 kts 179°
2026-04-23 11:16 49.51752 19.80571 38056 ft 468 kts 180°
2026-04-23 11:16 49.45239 19.80382 38039 ft 468 kts 180°
2026-04-23 11:17 49.38760 19.80202 38058 ft 468 kts 180°
2026-04-23 11:17 49.32226 19.80028 38045 ft 469 kts 180°
2026-04-23 11:18 49.25713 19.79911 38055 ft 468 kts 179°
2026-04-23 11:18 49.19192 19.79985 38040 ft 468 kts 178°
2026-04-23 11:19 49.12732 19.80105 38038 ft 468 kts 178°
2026-04-23 11:19 49.06219 19.80176 38028 ft 467 kts 179°
2026-04-23 11:20 48.99712 19.80215 38030 ft 467 kts 179°
2026-04-23 11:20 48.93257 19.80250 38023 ft 467 kts 179°
2026-04-23 11:21 48.86757 19.80295 38026 ft 467 kts 179°
2026-04-23 11:21 48.80228 19.80346 38000 ft 467 kts 179°
2026-04-23 11:21 48.76974 19.80372 37721 ft 466 kts 179°
2026-04-23 11:22 48.73693 19.80396 37088 ft 466 kts 179°
2026-04-23 11:22 48.70451 19.80416 36391 ft 466 kts 179°
2026-04-23 11:22 48.67210 19.80435 35707 ft 465 kts 179°
2026-04-23 11:22 48.64016 19.80458 35062 ft 465 kts 179°
2026-04-23 11:23 48.60785 19.80483 34425 ft 464 kts 178°
2026-04-23 11:23 48.57562 19.80508 33759 ft 462 kts 178°
2026-04-23 11:23 48.54349 19.80535 33012 ft 461 kts 178°
2026-04-23 11:23 48.51147 19.80560 32293 ft 459 kts 178°
2026-04-23 11:24 48.47960 19.80583 31592 ft 457 kts 178°
2026-04-23 11:24 48.44788 19.80607 30913 ft 455 kts 178°
2026-04-23 11:24 48.41634 19.80631 30243 ft 452 kts 178°
2026-04-23 11:24 48.38495 19.80655 29493 ft 450 kts 178°
2026-04-23 11:25 48.35407 19.80677 28737 ft 448 kts 178°
2026-04-23 11:25 48.32304 19.80698 27981 ft 445 kts 178°
2026-04-23 11:25 48.29210 19.80719 27235 ft 442 kts 178°
2026-04-23 11:25 48.26140 19.80738 26528 ft 440 kts 178°
2026-04-23 11:26 48.23119 19.80756 25853 ft 438 kts 178°
2026-04-23 11:26 48.19984 19.80789 25211 ft 465 kts 178°
2026-04-23 11:26 48.16740 19.80832 24626 ft 463 kts 178°
2026-04-23 11:26 48.13568 19.80830 24079 ft 451 kts 179°
2026-04-23 11:27 48.10484 19.80732 23530 ft 435 kts 180°
2026-04-23 11:27 48.07506 19.80560 22907 ft 421 kts 181°
2026-04-23 11:27 48.04618 19.80374 22309 ft 409 kts 180°
2026-04-23 11:27 48.01847 19.80232 21776 ft 398 kts 180°
2026-04-23 11:28 47.99108 19.80133 21266 ft 387 kts 179°
2026-04-23 11:28 47.96439 19.80098 20629 ft 382 kts 178°
2026-04-23 11:28 47.93659 19.80109 19933 ft 416 kts 178°
2026-04-23 11:28 47.90779 19.80087 19270 ft 409 kts 179°
2026-04-23 11:29 47.87971 19.80039 18703 ft 398 kts 179°
2026-04-23 11:29 47.85278 19.79739 18094 ft 390 kts 191°
2026-04-23 11:29 47.82729 19.78378 17473 ft 380 kts 209°
2026-04-23 11:29 47.80637 19.76100 16899 ft 379 kts 226°
2026-04-23 11:30 47.78985 19.73070 16390 ft 375 kts 236°
2026-04-23 11:30 47.77444 19.69954 15902 ft 373 kts 236°
2026-04-23 11:30 47.75912 19.66856 15440 ft 370 kts 236°
2026-04-23 11:30 47.74389 19.63786 14986 ft 367 kts 236°
2026-04-23 11:31 47.72876 19.60748 14573 ft 364 kts 236°
2026-04-23 11:31 47.71381 19.57754 14186 ft 360 kts 236°
2026-04-23 11:31 47.69893 19.54814 13794 ft 356 kts 232°
2026-04-23 11:31 47.68196 19.52263 13370 ft 354 kts 224°
2026-04-23 11:32 47.66398 19.49818 12948 ft 350 kts 224°
2026-04-23 11:32 47.64608 19.47386 12524 ft 346 kts 224°
2026-04-23 11:32 47.62844 19.44990 12114 ft 343 kts 224°
2026-04-23 11:32 47.61094 19.42615 11701 ft 339 kts 224°
2026-04-23 11:33 47.59359 19.40260 11294 ft 336 kts 224°
2026-04-23 11:33 47.57647 19.37933 10892 ft 333 kts 224°
2026-04-23 11:33 47.55973 19.35661 10565 ft 328 kts 224°
2026-04-23 11:33 47.54041 19.33891 10336 ft 323 kts 198°
2026-04-23 11:34 47.51857 19.33701 10086 ft 316 kts 166°
2026-04-23 11:34 47.49934 19.35106 9824 ft 306 kts 136°
2026-04-23 11:34 47.48470 19.37338 9556 ft 300 kts 129°
2026-04-23 11:34 47.47085 19.39615 9285 ft 296 kts 129°
2026-04-23 11:35 47.45722 19.41890 9017 ft 295 kts 129°
2026-04-23 11:35 47.44362 19.44150 8702 ft 294 kts 129°
2026-04-23 11:35 47.42999 19.46394 8310 ft 293 kts 129°
2026-04-23 11:35 47.41651 19.48589 7926 ft 292 kts 130°
2026-04-23 11:36 47.40286 19.50794 7538 ft 288 kts 130°
2026-04-23 11:36 47.38959 19.52928 7153 ft 277 kts 129°
2026-04-23 11:36 47.37682 19.54968 6786 ft 265 kts 129°
2026-04-23 11:36 47.36448 19.56927 6419 ft 257 kts 129°
2026-04-23 11:37 47.35244 19.58835 6024 ft 255 kts 130°
2026-04-23 11:37 47.34033 19.60754 5636 ft 257 kts 130°
2026-04-23 11:37 47.32748 19.62611 5290 ft 261 kts 143°
2026-04-23 11:37 47.31115 19.63668 5110 ft 255 kts 170°
2026-04-23 11:38 47.29392 19.63617 4932 ft 244 kts 198°
2026-04-23 11:38 47.27931 19.62593 4744 ft 231 kts 223°
2026-04-23 11:38 47.26901 19.60897 4577 ft 216 kts 246°
2026-04-23 11:38 47.26397 19.58898 4404 ft 203 kts 268°
2026-04-23 11:39 47.26391 19.56891 4245 ft 191 kts 286°
2026-04-23 11:39 47.26802 19.55101 4097 ft 180 kts 303°
2026-04-23 11:39 47.27507 19.53647 3980 ft 170 kts 312°
2026-04-23 11:39 47.28230 19.52318 3819 ft 161 kts 311°
2026-04-23 11:40 47.28895 19.51087 3649 ft 146 kts 311°
2026-04-23 11:40 47.29503 19.49961 3506 ft 140 kts 311°
2026-04-23 11:40 47.30134 19.48908 3354 ft 133 kts 315°
2026-04-23 11:40 47.30748 19.47926 3206 ft 128 kts 315°
2026-04-23 11:41 47.31348 19.46971 3054 ft 126 kts 315°
2026-04-23 11:41 47.31940 19.46027 2901 ft 126 kts 315°
2026-04-23 11:41 47.32531 19.45083 2749 ft 125 kts 315°
2026-04-23 11:41 47.33118 19.44147 2599 ft 124 kts 315°
2026-04-23 11:42 47.33701 19.43215 2545 ft 124 kts 314°
2026-04-23 11:42 47.34285 19.42280 2518 ft 124 kts 314°
2026-04-23 11:42 47.34860 19.41353 2491 ft 124 kts 314°
2026-04-23 11:42 47.35450 19.40425 2446 ft 124 kts 315°
2026-04-23 11:43 47.36041 19.39498 2324 ft 124 kts 314°
2026-04-23 11:43 47.36616 19.38559 2180 ft 123 kts 312°
2026-04-23 11:43 47.37184 19.37616 1962 ft 123 kts 313°
2026-04-23 11:43 47.37767 19.36699 1782 ft 123 kts 314°
2026-04-23 11:44 47.38346 19.35752 1603 ft 125 kts 314°
2026-04-23 11:44 47.38919 19.34788 1457 ft 125 kts 313°
2026-04-23 11:44 47.39503 19.33843 1268 ft 124 kts 315°
2026-04-23 11:44 47.40102 19.32961 1115 ft 123 kts 315°
2026-04-23 11:45 47.40676 19.32026 976 ft 122 kts 312°
2026-04-23 11:45 47.41233 19.31078 827 ft 121 kts 314°
2026-04-23 11:45 47.41810 19.30164 639 ft 122 kts 315°
2026-04-23 11:45 47.42320 19.29339 470 ft 122 kts 314°
2026-04-23 11:46 47.42828 19.28525 447 ft 84 kts 312°
2026-04-23 11:46 47.43106 19.28077 458 ft 35 kts 313°
2026-04-23 11:46 47.43231 19.27878 458 ft 25 kts 313°
2026-04-23 11:46 47.43309 19.27713 462 ft 18 kts 292°
2026-04-23 11:47 47.43345 19.27565 463 ft 15 kts 287°
2026-04-23 11:47 47.43369 19.27415 468 ft 13 kts 282°
2026-04-23 11:47 47.43388 19.27286 469 ft 13 kts 282°
2026-04-23 11:47 47.43408 19.27149 473 ft 14 kts 282°
2026-04-23 11:48 47.43435 19.27001 472 ft 15 kts 294°
2026-04-23 11:48 47.43500 19.26882 471 ft 16 kts 313°
2026-04-23 11:48 47.43579 19.26759 477 ft 16 kts 312°
2026-04-23 11:48 47.43651 19.26641 478 ft 16 kts 310°
2026-04-23 11:49 47.43723 19.26521 471 ft 15 kts 312°
2026-04-23 11:49 47.43747 19.26418 480 ft 11 kts 240°
2026-04-23 11:49 47.43689 19.26332 483 ft 12 kts 222°
2026-04-23 11:49 47.43628 19.26250 481 ft 11 kts 223°
2026-04-23 11:50 47.43565 19.26244 480 ft 10 kts 145°
2026-04-23 11:50 47.43513 19.26254 483 ft 6 kts 208°
2026-04-23 11:50 47.43479 19.26232 484 ft 7 kts 196°
2026-04-23 11:50 47.43459 19.26226 484 ft 0 kts 185°